Probability
0 0 0 0 0 0 0 0 0 0 0 0 0 0 0 0 0 0 0 0 0 0 0 0 0 0 0 0 0 0 0 0 0 0 0 0 0 0 0 0 0 0 0
0 0 0 0 0 0 0 0 0 0 0 0 0 0 0 0 0 0 0 0 0 0 0 0 0 0 0 0 0 0 0 0 0 0 0 0 0 0 0 0 0 0 0
0 0 0 0 0 0 0 0 0 0 0 0 0 0 0 0 0 0 0 0 0 0 0 0 0 0 0 0 0 0 0 0 0 0 0 0 0 0 0 0 0 0 0
0 0 0 0 0 0 0 0 0 0 0 0 0 0 0 0 0 0 0 0 0 0 0 0 0 0 0 0 0 0 0 0 0 0 0 0 0 0 0 0 0 0 0
0 0 0 0 0 0 0 0 0 0 0 0 0 0 0 0 0 0 0 0 0 0 0 0 0 0 0 0 0 0 0 0 0 0 0 0 0 0 0 0 0 0 0
0 0 0 0 0 0 0 0 0 0 0 0 0 0 0 0 0 0 0 0 0 0 0 0 0 0 0 0 0 0 0 0 0 0 0 0 0 0 0 0 0 0 0
0 0 0 0 0 0 0 0 0 0 0 0 0 0 0 0 0 0 0 0 0 0 0 0 0 0 0 0 0 0 0 0 0 0 0 0 0 0 0 0 0 0 0
0 0 0 0 0 0 0 0 0 0 0 0 0 0 0 0 0 0 0 0 0 0 0 0 0 0 0 0 0 0 0 0 0 0 0 0 0 0 0 0 0 0 0
0 0 0 0 0 0 0 0 0 0 0 0 0 0 0 0 0 0 0 0 0 0 0 0 0 0 0 0 0 0 0 0 0 0 0 0 0 0 0 0 0 0 0
0 0 0 0 0 0 0 0 0 0 0 0 0 0 0 0 0 0 0 0 0 0 0 0 0 0 0 0 0 0 0 0 0 0 0 0 0 0 0 0 0 0 0
0 0 0 0 0 0 0 0 0 0 0 0 0 0 0 0 0 0 0 0 0 0 0 0 0 0 0 0 0 0 0 0 0 0 0 0 0 0 0 0 0 0 0
0 0 0 0 0 0 0 0 0 0 0 0 0 0 0 0 0 0 0 0 0 0 0 0 0 0 0 0 0 0 0 0 0 0 0 0 0 0 0 0 0 0 0
0 0 0 0 0 0 0 0 0 0 0 0 0 0 0 0 0 0 0 0 0 0 0 0 0 0 0 0 0 0 0 0 0 0 0 0 0 0 0 0 0 0 0
0 0 0 0 0 0 0 0 0 0 0 0 0 0 0 0 0 0 0 0 0 0 0 0 0 0 0 0 0 0 0 0 0 0 0 0 0 0 0 0 0 0 0
0 0 0 0 0 0 0 0 0 0 0 0 0 0 0 0 0 0 0 0 0 0 0 0 0 0 0 0 0 0 0 0 0 0 0 0 0 0 0 0 0 0 0
0 0 0 0 0 0 0 0 0 0 0 0 0 0 0 0 0 0 0 0 0 0 0 0 0 0 0 0 0 0 0 0 0 0 0 0 0 0 0 0 0 0 0
0 0 0 0 0 0 0 0 0 0 0 0 0 0 0 0 0 0 0 0 0 0 0 0 0 0 0 0 0 0 0 0 0 0 0 0 0 0 0 0 0 0 0
0 0 0 0 0 0 0 0 0 0 0 0 0 0 0 0 0 0 0 0 0 0 0 0 0 0 0 0 0 0 0 0 0 0 0 0 0 0 0 0 0 0 0
0 0 0 0 0 0 0 0 0 0 0 0 0 0 0 0 0 0 0 0 0 0 0 0 0 0 0 0 0 0 0 0 0 0 0 0 0 0 0 0 0 0 0
0 0 0 0 0 0 0 0 0 0 0 0 0 0 0 0 0 0 0 0 0 0 0 0 0 0 0 0 0 0 0 0 0 0 0 0 0 0 0 0 0 0 0
0 0 0 0 0 0 0 0 0 0 0 0 0 0 0 0 0 0 0 0 0 0 0 0 0 0 0 0 0 0 0 0 0 0 0 0 0 0 0 0 0 0 0
0 0 0 0 0 0 0 0 0 0 0 0 0 0 0 0 0 0 0 0 0 0 0 0 0 0 0 0 0 0 0 0 0 0 0 0 0 0 0 0 0 0 0
0 0 0 0 0 0 0 0 0 0 0 0 0 0 0 0 0 0 0 0 0 0 0 0 0 0 0 0 0 0 0 0 0 0 0 0 0 0 0 0 0 0 0
0 0 0 0 0 0 0 0 0 0 0 0 0 0 0 0 0 0 0 0 0 0 0 0 0 0 0 0 0 0 0 0 0 0 0 0 0 0 0 0 0 0 0
0 0 0 0 0 0 0 0 0 0 0 0 0 0 0 0 0 0 0 0 0 0 0 0 0 0 0 0 0 0 0 0 0 0 0 0 0 0 0 0 0 0 0
0 0 0 0 0 0 0 0 0 0 0 0 0 0 0 0 0 0 0 0 0 0 0 0 0 0 0 0 0 0 0 0 0 0 0 0 0 0 0 0 0 0 0
Height
5700 5703 5705 5707 5709 5710 5712 5713 5715 5716 5717 5717 5718 5718 5718 5719 5719 5718 5718 5717 5717 5715 5714 5713 5711 5709 5707 5705 5703 5701 5699 5697 5696 5695 5692 5690 5688 5686 5684 5683 5681 5680 5680
5691 5694 5696 5697 5699 5700 5702 5703 5704 5705 5706 5707 5707 5707 5708 5708 5707 5707 5707 5706 5705 5704 5703 5701 5699 5698 5696 5693 5691 5689 5687 5685 5684 5682 5680 5678 5676 5675 5673 5672 5671 5670 5669
5682 5684 5686 5687 5689 5690 5691 5692 5693 5694 5695 5696 5696 5696 5696 5696 5696 5696 5695 5694 5693 5692 5691 5690 5688 5686 5684 5682 5680 5677 5675 5673 5672 5670 5669 5667 5665 5664 5663 5662 5661 5660 5660
5671 5673 5675 5676 5678 5679 5680 5681 5682 5683 5684 5684 5685 5685 5685 5685 5685 5684 5684 5683 5682 5681 5680 5678 5676 5675 5673 5671 5668 5666 5664 5662 5660 5659 5658 5656 5655 5653 5653 5652 5651 5651 5650
5660 5662 5663 5665 5666 5667 5668 5670 5671 5671 5672 5673 5673 5674 5674 5674 5673 5673 5673 5672 5671 5670 5668 5667 5665 5663 5661 5659 5657 5655 5653 5651 5650 5648 5647 5646 5645 5644 5643 5642 5642 5642 5641
5649 5650 5651 5653 5654 5655 5657 5658 5659 5660 5661 5662 5662 5662 5662 5662 5662 5662 5662 5661 5660 5659 5657 5656 5654 5652 5650 5648 5646 5644 5643 5641 5639 5638 5637 5636 5635 5635 5634 5633 5633 5633 5633
5637 5638 5640 5641 5642 5644 5645 5646 5647 5648 5649 5650 5651 5651 5651 5651 5651 5651 5650 5649 5649 5648 5646 5645 5643 5641 5640 5638 5636 5634 5632 5631 5629 5628 5627 5627 5626 5625 5625 5625 5625 5625 5625
5625 5626 5627 5628 5630 5631 5633 5634 5635 5637 5638 5639 5639 5640 5640 5640 5640 5640 5639 5638 5637 5636 5635 5634 5632 5631 5629 5627 5625 5624 5622 5621 5620 5619 5618 5617 5617 5617 5616 5616 5616 5616 5616
5612 5613 5614 5616 5617 5619 5620 5621 5623 5624 5626 5627 5628 5628 5629 5629 5629 5628 5628 5627 5626 5625 5624 5623 5622 5620 5619 5617 5616 5614 5613 5612 5611 5610 5609 5609 5608 5608 5608 5608 5608 5608 5608
5599 5600 5601 5603 5604 5606 5607 5609 5610 5612 5613 5614 5615 5616 5617 5617 5617 5617 5616 5616 5615 5615 5614 5612 5611 5610 5609 5607 5606 5605 5604 5603 5602 5601 5601 5601 5600 5600 5600 5600 5600 5600 5600
5585 5586 5588 5589 5591 5592 5594 5596 5597 5599 5600 5602 5603 5604 5605 5605 5606 5606 5605 5605 5604 5604 5603 5602 5601 5600 5599 5598 5597 5596 5595 5595 5594 5593 5593 5593 5592 5592 5592 5592 5592 5592 5592
5571 5572 5574 5575 5577 5579 5581 5583 5584 5586 5588 5590 5591 5592 5593 5594 5594 5594 5594 5594 5594 5593 5593 5592 5591 5590 5590 5589 5588 5587 5587 5586 5586 5585 5585 5585 5585 5585 5584 5584 5584 5583 5583
5557 5558 5560 5561 5563 5565 5567 5569 5571 5573 5575 5577 5579 5580 5581 5582 5583 5583 5583 5583 5583 5583 5582 5582 5582 5581 5580 5580 5579 5579 5578 5578 5578 5577 5577 5577 5577 5577 5576 5576 5575 5575 5574
5543 5544 5545 5547 5549 5551 5553 5556 5558 5560 5562 5564 5566 5568 5569 5570 5571 5572 5572 5573 5572 5572 5572 5572 5572 5572 5571 5571 5571 5570 5570 5570 5570 5570 5569 5569 5569 5568 5568 5568 5567 5566 5565
5528 5529 5531 5533 5535 5537 5539 5542 5544 5547 5549 5552 5554 5556 5558 5559 5560 5561 5561 5562 5562 5562 5562 5563 5563 5563 5563 5562 5562 5562 5562 5562 5562 5562 5561 5561 5561 5560 5559 5559 5558 5557 5556
5513 5515 5516 5518 5520 5523 5526 5529 5531 5534 5536 5539 5541 5544 5546 5547 5548 5550 5550 5551 5551 5552 5553 5553 5553 5553 5554 5554 5554 5554 5553 5553 5553 5553 5553 5553 5552 5551 5550 5549 5548 5546 5545
5497 5500 5502 5504 5507 5509 5512 5515 5518 5521 5523 5526 5529 5531 5533 5535 5537 5538 5539 5540 5541 5542 5543 5543 5544 5544 5544 5545 5545 5545 5545 5545 5545 5544 5544 5543 5542 5541 5540 5539 5537 5536 5534
5481 5484 5487 5489 5492 5495 5498 5501 5504 5508 5511 5513 5516 5518 5521 5523 5525 5526 5528 5530 5531 5532 5533 5533 5534 5535 5535 5535 5536 5536 5536 5536 5535 5535 5534 5533 5532 5531 5529 5528 5526 5525 5523
5463 5467 5471 5474 5477 5481 5484 5488 5491 5494 5498 5501 5504 5506 5508 5511 5513 5515 5517 5519 5521 5522 5523 5524 5524 5525 5525 5526 5526 5526 5526 5526 5526 5525 5524 5523 5521 5520 5518 5517 5515 5514 5512
5446 5450 5454 5458 5462 5466 5470 5474 5478 5481 5485 5488 5491 5494 5496 5499 5501 5504 5506 5508 5510 5511 5513 5514 5514 5515 5515 5516 5516 5516 5516 5516 5515 5514 5513 5512 5510 5509 5507 5506 5504 5502 5500
5429 5433 5437 5442 5447 5451 5456 5460 5465 5468 5472 5475 5479 5481 5484 5487 5490 5492 5495 5497 5499 5500 5502 5503 5504 5505 5505 5505 5506 5506 5505 5505 5504 5503 5502 5501 5499 5498 5496 5494 5493 5491 5489
5413 5417 5422 5427 5432 5437 5442 5446 5451 5455 5459 5463 5466 5469 5472 5475 5478 5481 5483 5485 5487 5489 5491 5492 5493 5494 5495 5495 5495 5495 5495 5494 5493 5492 5491 5490 5488 5487 5485 5483 5481 5479 5477
5398 5402 5407 5412 5417 5422 5428 5433 5438 5442 5446 5450 5454 5457 5460 5463 5466 5469 5471 5474 5476 5478 5480 5481 5483 5484 5484 5484 5484 5484 5484 5483 5482 5481 5480 5479 5477 5475 5474 5472 5469 5467 5465
5385 5389 5393 5398 5403 5408 5414 5420 5425 5430 5434 5438 5442 5446 5449 5452 5454 5457 5460 5462 5464 5467 5469 5470 5472 5473 5473 5473 5473 5473 5473 5472 5471 5470 5469 5468 5466 5464 5462 5460 5458 5455 5453
5374 5377 5381 5386 5391 5396 5401 5407 5412 5417 5422 5427 5431 5434 5438 5441 5443 5446 5448 5451 5453 5456 5458 5459 5461 5461 5462 5462 5462 5462 5461 5461 5460 5459 5458 5456 5455 5453 5451 5448 5446 5443 5440
5363 5366 5370 5375 5380 5385 5390 5395 5401 5406 5411 5415 5420 5423 5427 5430 5432 5435 5437 5440 5443 5445 5447 5448 5450 5450 5451 5451 5451 5451 5450 5450 5449 5448 5446 5445 5443 5441 5438 5436 5433 5430 5427
Wind_Speed
38 38 39 40 40 41 42 43 43 44 45 46 47 47 48 48 49 49 49 49 50 50 50 50 50 50 50 50 50 49 49 49 48 47 47 46 45 45 44 42 41 39 38
40 40 41 41 42 43 43 44 45 45 46 47 48 48 49 49 49 49 49 49 49 49 49 49 49 49 48 48 48 48 48 48 47 46 45 44 43 42 41 40 38 37 36
44 44 44 44 45 45 45 45 46 46 47 47 47 47 47 48 47 47 48 48 48 48 47 47 46 46 46 46 46 46 47 46 45 44 43 42 40 39 38 37 36 35 34
46 46 46 46 46 46 46 46 46 47 47 47 46 46 46 46 46 46 46 46 46 46 45 45 45 45 45 45 45 45 44 44 43 42 41 40 38 38 36 35 34 34 32
47 47 47 47 47 47 46 46 47 47 47 46 45 45 45 46 45 45 45 45 44 44 44 44 44 44 44 44 43 43 43 42 41 40 39 38 36 35 34 34 33 32 31
47 48 47 47 47 47 47 47 46 46 46 45 45 45 45 44 44 44 44 43 43 43 43 43 43 43 43 43 42 42 41 40 39 38 37 36 34 34 33 32 31 30 29
47 48 48 47 47 47 47 47 47 46 46 45 45 45 44 44 44 44 44 43 43 43 43 43 43 43 43 42 41 40 39 38 38 37 35 34 33 32 31 31 30 29 29
47 48 48 48 48 48 47 47 47 46 46 46 45 45 45 45 44 44 43 43 43 42 42 42 42 42 41 40 39 37 37 36 35 33 32 32 31 31 31 30 29 29 29
47 47 47 47 47 47 47 47 47 47 46 46 45 45 45 44 44 43 42 42 41 41 41 41 41 40 39 37 36 35 34 33 32 31 31 30 30 30 30 29 28 28 28
47 47 47 47 46 46 46 46 46 46 45 45 44 44 43 43 42 41 41 41 41 40 40 39 38 38 37 35 34 33 32 31 30 30 29 29 28 28 27 27 27 27 28
47 47 47 47 46 46 46 45 45 45 44 44 44 43 42 42 41 41 40 40 40 39 39 38 37 36 34 33 33 32 31 30 29 28 28 28 27 27 27 27 27 28 28
46 46 46 46 46 46 45 45 44 44 44 43 42 41 41 41 40 40 39 38 38 38 37 36 35 33 32 32 32 31 31 29 28 28 27 27 26 26 27 27 28 28 29
46 46 45 45 45 45 45 44 44 44 43 42 41 41 40 40 39 38 38 37 37 36 35 34 33 32 31 31 30 29 28 28 27 26 26 27 27 27 27 27 28 29 30
46 46 46 45 44 44 44 44 43 43 42 42 41 40 40 39 38 38 37 36 35 34 34 32 31 30 30 30 29 28 27 27 27 27 26 26 26 27 27 28 29 30 31
45 44 45 45 45 44 43 43 42 42 42 41 40 40 39 38 38 37 36 36 35 33 32 31 31 30 29 29 28 28 27 27 27 27 27 27 28 29 29 30 31 32 33
45 44 43 43 43 43 43 42 42 42 41 41 40 40 39 38 38 37 36 35 34 32 31 31 30 30 29 29 28 28 28 27 27 28 28 29 30 31 32 32 33 33 33
45 44 43 42 41 41 41 41 41 41 41 41 40 39 39 38 38 37 36 35 33 32 31 31 30 30 29 29 29 29 29 29 29 29 30 31 32 32 33 33 34 34 34
46 45 43 43 42 41 41 41 41 41 40 40 39 39 39 38 37 36 34 33 32 31 31 30 30 30 30 30 29 29 30 30 30 31 32 33 33 34 34 34 34 35 35
46 45 44 43 43 42 41 40 40 40 40 40 40 39 38 38 37 35 34 33 32 32 31 31 31 31 31 30 30 31 31 32 32 33 33 34 34 34 34 35 35 35 36
45 45 44 44 43 42 42 41 40 40 39 39 38 38 38 38 37 36 35 34 33 33 32 32 31 31 31 31 31 32 32 33 33 33 34 34 34 34 35 35 36 36 36
43 43 43 43 43 42 42 41 40 39 38 38 37 37 38 38 37 36 35 35 34 33 33 32 32 31 32 32 32 32 33 33 34 34 34 34 34 35 35 35 36 36 36
41 42 42 42 42 42 41 41 40 39 38 37 37 37 37 37 37 36 36 35 35 34 34 33 33 32 32 32 32 33 33 34 34 34 34 34 35 35 35 36 36 37 37
37 39 40 40 41 41 41 40 40 39 38 36 35 35 35 35 36 36 36 36 36 35 34 34 33 33 33 33 33 33 33 33 33 33 34 34 34 35 35 35 36 37 38
33 35 36 37 38 39 39 39 38 38 37 36 35 34 34 34 35 35 35 35 34 34 34 33 33 33 34 34 34 34 33 33 33 33 34 34 35 35 36 37 37 38 39
30 31 33 34 35 36 37 37 37 37 37 36 35 34 34 33 33 33 34 34 33 33 34 34 34 34 34 34 34 34 34 34 34 34 35 35 36 37 37 38 40 41 41
28 29 31 32 33 34 35 36 36 36 35 34 34 33 33 32 32 31 31 31 32 33 33 33 33 33 33 33 33 33 34 34 35 35 36 37 37 38 39 40 41 42 43
Wind_Direction
249 252 253 254 255 256 258 260 262 263 265 266 269 271 273 275 276 277 278 280 282 283 284 285 286 287 287 287 288 287 287 287 287 286 286 285 285 285 285 284 284 284 284
250 253 254 255 256 258 260 262 263 264 265 267 270 272 273 275 276 278 279 281 282 283 284 285 286 286 286 287 287 288 288 288 287 287 287 286 285 284 284 284 284 283 283
253 254 255 256 257 259 260 262 263 265 267 268 270 271 273 274 275 277 279 281 282 283 284 285 286 286 287 287 288 288 288 288 287 286 286 285 284 284 284 283 282 282 281
255 256 257 258 259 260 261 262 263 265 267 268 270 271 273 274 276 278 279 281 282 283 284 284 285 286 288 288 289 289 288 287 286 286 285 284 284 283 282 281 281 281 280
255 256 257 258 259 260 261 262 264 265 267 268 270 271 273 275 277 278 280 281 282 283 283 285 286 287 288 288 289 289 288 287 286 285 285 285 283 283 282 281 280 279 277
256 257 258 258 259 260 261 262 263 265 266 268 269 271 273 275 277 278 279 281 282 283 284 284 286 287 287 288 288 288 287 286 285 285 284 283 283 282 281 280 279 277 274
256 257 258 258 259 260 260 261 263 265 266 267 269 271 272 274 276 278 279 280 281 282 283 285 286 287 287 287 288 287 286 284 283 283 283 282 281 280 279 278 277 275 273
257 258 258 259 259 259 260 261 262 264 265 267 268 270 272 274 275 277 278 279 281 282 283 284 285 286 287 287 287 287 286 285 284 282 281 281 280 280 278 277 275 274 273
258 259 259 259 260 260 260 261 262 263 264 266 267 269 271 273 275 276 278 279 281 282 283 284 284 285 285 285 285 285 285 284 282 281 281 280 279 278 277 276 275 274 274
259 259 259 259 259 260 260 260 261 262 264 265 267 268 270 272 274 276 277 278 279 281 281 282 283 283 283 283 284 284 283 282 281 281 280 279 278 277 276 276 276 275 276
261 261 260 260 260 260 260 260 261 261 263 264 266 267 269 271 273 275 276 277 278 279 280 281 281 281 281 281 282 281 281 280 280 279 278 277 276 276 276 276 276 277 278
262 261 260 260 260 259 259 259 259 260 261 262 263 265 267 269 271 273 274 275 277 277 278 279 279 279 278 279 280 279 279 278 277 276 276 275 275 276 277 277 277 278 279
262 261 260 259 259 258 257 258 258 259 260 261 262 264 266 267 269 271 273 274 275 276 276 276 277 276 277 278 278 278 277 275 275 274 275 275 276 277 278 279 280 280 281
262 261 260 259 257 256 256 256 257 257 258 259 260 262 264 266 267 269 271 272 273 273 274 274 274 274 276 277 276 274 274 273 274 274 276 277 277 278 280 281 282 282 282
261 260 259 258 256 255 255 255 255 255 256 257 258 260 262 264 265 267 269 270 270 271 270 271 272 273 274 273 272 272 272 272 273 274 276 277 279 280 282 283 283 284 284
261 259 258 257 256 254 253 253 253 253 254 255 256 258 259 261 264 266 267 267 267 267 268 269 269 270 270 270 270 271 271 272 274 275 277 279 281 282 283 284 284 284 284
260 258 256 255 254 253 252 252 252 252 253 254 255 256 258 259 261 263 264 264 264 264 266 267 267 267 268 269 269 270 271 273 274 276 279 280 282 283 283 284 284 285 285
258 256 255 253 252 252 252 251 251 251 252 252 253 254 255 257 258 259 260 261 262 263 264 265 266 266 267 268 268 270 272 274 276 278 280 281 282 283 284 284 285 285 286
257 255 254 252 251 250 250 250 250 250 251 251 251 252 253 254 255 256 257 259 260 261 262 264 265 265 266 267 268 270 273 275 277 279 281 282 283 283 284 284 285 286 287
255 253 251 251 250 250 248 248 248 248 249 249 249 250 252 252 253 254 255 257 258 259 260 262 263 264 266 268 269 271 273 275 277 278 281 282 283 284 284 284 285 286 287
253 251 249 248 248 248 247 246 247 247 247 248 248 249 250 251 251 252 253 255 257 258 259 261 262 264 266 268 270 272 274 275 277 279 280 281 283 284 284 285 286 287 288
253 250 248 247 246 245 245 245 245 247 247 247 247 248 249 250 250 251 253 254 255 257 258 260 262 264 267 269 271 273 275 277 278 279 280 282 283 284 285 286 287 287 288
252 248 246 245 244 243 243 243 244 245 245 245 246 247 248 249 250 251 252 253 255 256 257 259 261 264 267 269 272 274 275 276 277 279 281 283 284 285 285 286 287 288 289
253 248 244 243 242 240 240 240 241 241 243 244 245 246 248 249 250 250 251 252 253 254 255 258 261 265 268 270 272 273 275 276 277 279 281 282 284 285 286 287 288 288 289
253 248 243 241 240 238 238 238 238 239 241 242 243 245 247 249 250 250 250 251 252 253 256 259 262 266 268 270 272 273 275 275 277 279 281 282 283 285 286 287 288 289 290
251 247 242 239 238 237 237 236 236 237 239 240 242 243 245 248 249 249 249 250 252 254 257 260 264 266 268 269 271 273 274 276 277 279 281 282 284 286 287 288 289 290 291